Hourly Data Report for January 02, 2018

All times are specified in Local Standard Time (LST). Add 1 hour to adjust for Daylight Saving Time where and when it is observed.

SAINT JOHN A
NEW BRUNSWICK

45°18'58.000" N
65°53'24.000" W
108.80 m
8104901
71609
YSJ

Download Data

Hourly Data (January 2018)
Hourly Data Report for January 2, 2018
Temp Definition
°C
Dew Point Temp Definition
°C
Rel Hum Definition
%
Wind Dir Definition
10's deg

Wind Spd Definition
km/h
Visibility Definition
km
Stn Press Definition
kPa
Hmdx Definition


Wind Chill Definition


Weather Definition


TIME
00:00 Legend Double Dagger -21.1 -24.1 77 30 7 24.1 100.26   -27 LegendNANA
01:00 Legend Double Dagger -20.6 -23.7 77 30 9 24.1 100.21   -27 LegendNANA
02:00 Legend Double Dagger -19.3 -22.5 76 28 9 19.3 100.20   -26 Cloudy
03:00 Legend Double Dagger -18.8 -22.0 76 29 9 24.1 100.20   -25 LegendNANA
04:00 Legend Double Dagger -18.6 -21.9 76 30 10 24.1 100.21   -26 LegendNANA
05:00 Legend Double Dagger -18.9 -22.2 75 30 12 24.1 100.19   -27 Cloudy
06:00 Legend Double Dagger -19.4 -22.6 76 29 10 24.1 100.20   -26 LegendNANA
07:00 Legend Double Dagger -19.3 -22.6 75 30 12 19.3 100.25   -27 Snow
08:00 Legend Double Dagger -19.9 -22.9 77 30 9 24.1 100.28   -27 Mostly Cloudy
09:00 Legend Double Dagger -18.5 -22.5 71 32 15 24.1 100.31   -27 LegendNANA
10:00 Legend Double Dagger -18.1 -22.1 71 31 12 24.1 100.35   -26 LegendNANA
11:00 Legend Double Dagger -16.8 -21.8 66 31 26 24.1 100.35   -28 Snow
12:00 Legend Double Dagger -15.2 -20.9 62 32 26 24.1 100.25   -26 LegendNANA
13:00 Legend Double Dagger -13.6 -19.7 61 32 16 24.1 100.22   -21 LegendNANA
14:00 Legend Double Dagger -12.7 -19.9 55 33 17 24.1 100.17   -21 Mainly Clear
15:00 Legend Double Dagger -12.8 -20.4 54 30 23 24.1 100.20   -22 LegendNANA
16:00 Legend Double Dagger -13.4 -20.8 54 29 22 24.1 100.27   -23 LegendNANA
17:00 Legend Double Dagger -14.7 -21.0 60 30 5 24.1 100.31   -18 Mainly Clear
18:00 Legend Double Dagger -18.5 -20.6 84 36 3 24.1 100.37   -21 LegendNANA
19:00 Legend Double Dagger -16.3 -21.0 68 22 5 24.1 100.43   -20 LegendNANA
20:00 Legend Double Dagger -16.2 -21.4 65 29 10 24.1 100.50   -23 Clear
21:00 Legend Double Dagger -16.2 -22.3 60 29 20 22.5 100.50   -26 LegendNANA
22:00 Legend Double Dagger -16.7 -22.8 60 26 12 24.1 100.53   -24 LegendNANA
23:00 Legend Double Dagger -17.5 -23.5 60 27 9 24.1 100.55   -24 Mainly Clear

Notes on Data Quality.

Legend

  • E = Estimated
  • M = Missing
  • NA = Not Available
  • ‡ = Partner data that is not subject to review by the National Climate Archives
Date modified: